Flag for Portugal Weather past 2 weeks in Viana do Castelo, Portugal

Now
52 °F

Partly cloudy.


Feels Like: 48 °F
Forecast: 47 / 55 °F
Wind: 10 mph from Northwest

Location: Porto / Pedras Rubras

Current Time: Feb 27, 2015 at 1:23:47 AM

Latest Report: Feb 27, 2015 at 12:30 AM


Visibility: N/A

Pressure: 30.36 "Hg

Humidity: 100%

Dew point: 52 °F

Location of Viana do CasteloLocation

Historic Weather in Viana do Castelo — Graph

°F

Viana do Castelo temperature yesterday

Maximum temperature yesterday: 55 °F (at 11:00 AM)
Minimum temperature yesterday: 50 °F (at 7:00 AM)
Average temperature yesterday: 53 °F

Past Weeks' High & Low Weather Summary

 TemperatureHumidityPressure
High61 °F (Feb 19, 1:00 PM)100% (Feb 12, 8:00 PM)30.60 "Hg (Feb 12, 8:00 PM)
Low37 °F (Feb 18, 2:00 AM)31% (Feb 18, 2:30 PM)29.92 "Hg (Feb 14, 6:00 PM)
Average51 °F84%30.27 "Hg
* Reported Feb 11 11:00 PM — Feb 26 11:30 PM, Viana do Castelo, Weather by CustomWeather, © 2015

Note: Actual official high and low records may vary slightly from our data, if they occured in-between our weather recording intervals... More about our weather records

Advertising

Viana do Castelo weather history for previous 24 hours

 ConditionsComfort  
Time TempWeatherWind HumidityBarometerVisibility
11:30 PM
Thu, Feb 26
54 °FDrizzle. Fog.8 mph100%30.36 "Hg2 mi
11:00 PM54 °FDrizzle. Fog.6 mph100%30.36 "Hg2 mi
10:30 PM54 °FDrizzle. Fog.5 mph100%30.36 "Hg2 mi
10:00 PM54 °FDrizzle. Fog.5 mph100%30.36 "Hg2 mi
9:30 PM54 °FFog.5 mph100%30.36 "Hg3 mi
9:00 PM54 °FLow clouds.2 mph100%30.36 "Hg6 mi
8:30 PM54 °FLow clouds.2 mph100%30.36 "HgN/A
8:00 PM54 °FLow clouds.5 mph100%30.36 "HgN/A
7:30 PM54 °FPassing clouds.1 mph100%30.39 "Hg5 mi
7:00 PM54 °FPassing clouds.2 mph100%30.39 "HgN/A
6:30 PM54 °FOvercast.2 mph94%30.39 "HgN/A
6:00 PM54 °FMore clouds than sun.3 mph94%30.39 "HgN/A
5:30 PM54 °FMostly cloudy.5 mph94%30.39 "HgN/A
5:00 PM54 °FCloudy.6 mph94%30.39 "HgN/A
4:30 PM54 °FDrizzle. Broken clouds.6 mph94%30.39 "Hg4 mi
4:00 PM54 °FDrizzle. Fog.6 mph94%30.39 "Hg2 mi
3:30 PM54 °FBroken clouds.7 mph94%30.42 "HgN/A
3:00 PM54 °FBroken clouds.7 mph88%30.39 "HgN/A
2:30 PM54 °FBroken clouds.9 mph88%30.39 "HgN/A
2:00 PM55 °FBroken clouds.8 mph88%30.39 "HgN/A
1:30 PM55 °FBroken clouds.9 mph82%30.42 "HgN/A
1:00 PM55 °FPartly sunny.10 mph82%30.45 "HgN/A
12:30 PM55 °FPartly sunny.10 mph82%30.45 "HgN/A
12:00 PM55 °FPartly sunny.9 mph82%30.45 "HgN/A
11:30 AM55 °FPartly sunny.9 mph82%30.45 "HgN/A
11:00 AM55 °FScattered clouds.6 mph82%30.45 "HgN/A
10:30 AM54 °FBroken clouds.8 mph88%30.48 "HgN/A
10:00 AM54 °FBroken clouds.8 mph88%30.48 "HgN/A
9:30 AM52 °FBroken clouds.12 mph94%30.48 "HgN/A
9:00 AM52 °FBroken clouds.6 mph94%30.48 "HgN/A
8:30 AM52 °FBroken clouds.8 mph94%30.48 "HgN/A
8:00 AM52 °FDrizzle. Broken clouds.7 mph94%30.48 "Hg4 mi
7:30 AM52 °FDrizzle. Broken clouds.5 mph94%30.48 "HgN/A
7:00 AM50 °FPartly cloudy.5 mph100%30.48 "HgN/A
6:00 AM52 °FPassing clouds.2 mph94%30.48 "HgN/A
5:30 AM52 °FPartly cloudy.2 mph94%30.48 "HgN/A
5:00 AM52 °FPassing clouds.5 mph94%30.48 "HgN/A
4:30 AM52 °FPassing clouds.7 mph94%30.48 "HgN/A
3:30 AM52 °FPassing clouds.7 mph94%30.51 "HgN/A
3:00 AM52 °FMostly cloudy.8 mph94%30.51 "HgN/A
2:30 AM52 °FMostly cloudy.9 mph94%30.54 "HgN/A
2:00 AM52 °FPassing clouds.9 mph94%30.54 "HgN/A
1:30 AM52 °FPassing clouds.12 mph100%30.54 "HgN/A
1:00 AM52 °FMostly cloudy.10 mph100%30.54 "HgN/A
Weather by CustomWeather, © 2015

See weather overviewHow to use our weather pages